Location: Killam
(52.7910°N, 111.8608°W)
Time: 14:45:50
(UTC+00:00)

Injun/Solrad 3 - Pass Details

Date: 23 February 2026
Orbit: 872 x 984 km, 66.8° (Epoch: 7 March)

Event Time Altitude Azimuth Distance (km) Brightness Sun altitude
Rises 03:37:33 0° 314° (NW) 3,585 12.0 -25.3°
Reaches altitude 10° 03:40:41 10° 299° (WNW) 2,658 11.3 -25.7°
Maximum altitude 03:45:04 21° 253° (WSW) 2,020 10.2 -26.3°
Drops below altitude 10° 03:49:30 10° 208° (SSW) 2,697 10.4 -27.0°
Sets 03:52:43 0° 193° (SSW) 3,654 10.9 -27.4°
